This is the latest recevied weather packets stored in our database for station/object N7BTW-13. If no packets are shown the sender has not sent any weather packets the latest 10 day(s).
| Time | Temp. | Humidity | Pressure | Rain* | Wind** | Luminosity | Snow |
|---|---|---|---|---|---|---|---|
| 1787817011 | 15.56° C | 87% | - | 0 mm | - | - | - |
| 1787816406 | 15.56° C | 85% | - | 0 mm | - | - | - |
| 1787815807 | 16.11° C | 85% | - | 0 mm | - | - | - |
| 1787815208 | 16.11° C | 85% | - | 0 mm | - | - | - |
| 1787814610 | 16.67° C | 81% | - | 0 mm | - | - | - |
| 1787814010 | 16.67° C | 82% | - | 0 mm | - | - | - |
| 1787813406 | 17.22° C | 82% | - | 0 mm | - | - | - |
| 1787812809 | 17.22° C | 80% | - | 0 mm | - | - | - |
| 1787812207 | 17.78° C | 75% | - | 0 mm | - | - | - |
| 1787811608 | 18.33° C | 73% | - | 0 mm | - | - | - |
| 1787811005 | 18.89° C | 73% | - | 0 mm | - | - | - |
| 1787810413 | 19.44° C | 72% | - | 0 mm | - | - | - |
| 1787809808 | 20° C | 70% | - | 0 mm | - | - | - |
| 1787809207 | 20° C | 69% | - | 0 mm | - | - | - |
| 1787808608 | 20.56° C | 68% | - | 0 mm | - | - | - |
| 1787808009 | 20.56° C | 67% | - | 0 mm | - | - | - |
| 1787807407 | 20.56° C | 67% | - | 0 mm | - | - | - |
| 1787806810 | 21.11° C | 65% | - | 0 mm | - | - | - |
| 1787806210 | 21.11° C | 64% | - | 0 mm | - | - | - |
| 1787805606 | 21.67° C | 63% | - | 0 mm | - | - | - |
| 1787805010 | 21.67° C | 62% | - | 0 mm | - | - | - |
| 1787804408 | 21.67° C | 62% | - | 0 mm | - | - | - |
| 1787803811 | 22.22° C | 62% | - | 0 mm | - | - | - |
| 1787803207 | 22.22° C | 62% | - | 0 mm | - | - | - |
| 1787802606 | 22.78° C | 61% | - | 0 mm | - | - | - |
* Rain latest hour (hover to see other rain measurements)
** Current wind speed in m/s (hover to see current wind gust speed)